Regional Weather Roundup
Issued by NWS

Home | Current Version | Previous Version | Text Only | Print | Product List | Glossary On
Versions: 1 2 3 4 5 6 7 8 9 10 11 12 13 14 15 16 17 18 19 20 21 22 23 24 25 26 27 28 29 30 31 32 33 34 35 36 37 38 39 40 41 42 43 44 45 46 47 48 49 50
000
ASUS43 KBIS 090610
RWRND

NORTH DAKOTA REGIONAL WEATHER ROUNDUP
NATIONAL WEATHER SERVICE BISMARCK ND
100 AM CDT THU JUL 09 2020

NOTE: "FAIR" INDICATES FEW OR NO CLOUDS BELOW 12,000 FEET WITH NO
SIGNIFICANT WEATHER AND/OR OBSTRUCTIONS TO VISIBILITY.


NDZ001>003-009>011-017-090700-
NORTHWEST NORTH DAKOTA

CITY           SKY/WX    TMP DP  RH WIND       PRES   REMARKS
WILLISTON      FAIR      60  48  64 SW17G25   29.80S
6HR MIN TEMP:  60; 6HR MAX TEMP:  73;

MINOT          CLEAR     65  49  56 SW13G23   29.76S
MINOT AFB      CLEAR     62  51  69 W14       29.73F
$$

NDZ018>021-031>035-040>046-090700-
SOUTHWEST NORTH DAKOTA

CITY           SKY/WX    TMP DP  RH WIND       PRES   REMARKS
BISMARCK       MOCLDY    71  62  73 W9        29.83R
6HR MIN TEMP:  66; 6HR MAX TEMP:  83;

DICKINSON      CLEAR     57  50  77 W7        29.87S
GARRISON         N/A     62  52  69 W10       29.81R
6HR MIN TEMP:  60; 6HR MAX TEMP:  77;

HETTINGER ARPT CLEAR     59  53  80 NW7       29.91R
$$

NDZ004>008-012>016-024-026-027-054-090700-
NORTHEAST NORTH DAKOTA

CITY           SKY/WX    TMP DP  RH WIND       PRES   REMARKS
GRAND FORKS    MOCLDY    68  62  81 CALM      29.70F
GRND FRKS AFB  MOCLDY    65  65 100 W3        29.73S
DEVILS LAKE    PTCLDY    70  61  73 S9        29.75F
$$

NDZ022-023-025-028>030-036>039-047>053-090700-
SOUTHEAST NORTH DAKOTA

CITY           SKY/WX    TMP DP  RH WIND       PRES   REMARKS
FARGO          CLOUDY    72  70  93 N7        29.72S
6HR MIN TEMP:  72; 6HR MAX TEMP:  81;

JAMESTOWN      MOCLDY    66  62  87 S5        29.78R
$$




USA.gov is the U.S. government's official web portal to all federal, state and local government web resources and services.